Dewpoint
56 56 55 56 56 56 57 57 58 58 59 59 59 60 60 61 60 54 31 40 45 69 66 56 57 54 55 55 60 56 49 49 51 55 54 59 58 61 61 60 61 61 61 62 67
56 55 56 56 56 56 56 56 57 57 58 58 59 60 60 61 55 46 53 64 70 72 43 41 39 42 45 55 59 53 48 48 53 55 57 60 60 61 60 60 59 59 62 66 67
55 55 55 55 55 56 56 56 56 56 58 58 59 60 61 60 41 29 65 68 70 67 41 37 38 41 44 48 56 54 51 51 55 56 58 59 60 61 59 58 59 59 62 65 66
56 54 55 55 55 55 55 57 56 56 57 58 59 60 61 55 26 38 72 71 71 55 36 38 45 43 42 41 53 54 56 54 57 59 59 58 60 59 60 58 60 60 62 64 64
55 55 54 54 55 55 55 55 55 56 57 58 59 61 53 28 25 37 71 73 58 42 31 35 43 43 39 39 49 55 54 53 55 58 57 61 59 59 60 61 61 60 61 61 63
55 54 54 54 54 54 55 55 56 56 57 58 60 61 47 22 23 49 61 52 41 31 33 37 42 44 41 39 35 38 50 52 52 56 58 58 60 60 58 61 60 61 60 60 61
55 55 55 55 55 54 54 55 56 56 57 58 60 58 42 25 41 43 42 39 32 29 32 41 44 37 36 28 34 38 50 51 53 52 55 58 56 57 59 60 60 60 61 61 62
55 55 55 54 54 54 54 54 55 57 57 59 61 53 32 35 44 39 37 32 30 33 37 41 42 36 30 29 30 44 44 43 48 53 53 53 50 53 59 59 60 60 60 60 61
54 54 54 54 53 53 53 54 56 57 58 59 50 45 33 47 41 43 34 31 29 29 33 34 32 28 27 26 28 35 35 40 43 53 52 52 50 52 59 58 59 60 60 60 61
54 54 53 53 53 52 53 53 57 57 57 57 53 34 35 33 39 38 36 33 33 34 36 32 28 27 26 24 25 28 25 29 32 42 50 51 51 53 58 58 58 59 59 60 60
54 53 53 53 52 52 50 50 41 40 48 22 24 24 30 32 37 33 34 32 31 32 32 31 28 24 24 25 25 27 27 27 28 31 37 41 48 49 58 57 57 58 58 58 59
54 53 53 53 52 51 49 34 37 40 28 39 39 35 37 33 29 30 34 32 31 28 31 29 30 30 29 26 26 26 25 25 28 30 36 43 47 49 55 57 56 57 56 56 56
53 53 52 53 51 49 45 36 37 38 32 34 40 38 37 33 31 30 32 29 30 29 27 26 28 28 26 26 25 24 24 25 24 26 42 42 41 40 47 57 58 56 55 55 57
53 52 52 51 46 46 44 44 43 38 29 28 33 35 33 32 29 32 30 26 26 27 25 24 26 22 22 21 22 21 24 25 27 27 20 37 30 31 35 44 56 57 58 56 57
52 52 52 51 44 46 45 46 38 34 22 31 32 36 36 28 27 28 30 26 24 23 22 21 23 23 22 23 21 22 23 23 26 25 21 20 19 23 43 38 42 55 57 58 56
52 51 51 49 48 46 47 44 36 28 27 29 32 30 31 28 23 30 29 29 28 24 26 23 27 26 25 26 22 26 22 19 21 19 15 17 18 21 24 34 37 52 56 56 58
52 51 50 48 34 48 45 36 28 27 32 25 24 26 24 22 23 25 28 28 27 28 25 27 27 28 26 26 26 16 19 19 16 12 15 25 22 21 25 31 38 38 54 57 56
50 50 50 49 49 48 38 34 32 32 33 29 25 23 21 21 21 22 27 27 28 28 27 25 24 28 28 27 24 19 19 16 9 11 14 26 20 18 29 30 39 40 49 56 55
50 47 47 47 49 47 35 30 30 35 34 30 28 25 26 29 24 23 24 27 26 28 26 25 26 28 25 24 24 22 14 16 14 16 15 17 19 23 32 34 36 41 50 54 55
47 46 46 48 47 40 34 33 34 35 35 30 26 28 27 29 29 26 30 35 36 30 29 27 25 27 28 26 24 20 19 15 16 15 13 18 22 23 33 35 37 39 39 45 52
48 38 43 45 41 36 28 30 35 36 35 31 29 30 31 31 32 31 34 35 35 38 31 32 27 26 27 25 25 19 16 16 17 17 15 15 19 27 34 39 37 38 41 46 48
49 36 44 39 35 38 34 35 36 30 32 31 33 33 32 32 31 33 33 33 34 39 33 39 28 25 26 28 29 25 20 16 15 15 19 18 21 28 34 37 37 39 41 49 47
46 43 42 37 33 34 33 32 30 28 29 29 29 30 32 32 30 34 32 34 32 36 32 34 32 30 29 28 31 32 31 28 24 26 22 24 27 32 36 36 38 41 42 47 53
40 35 37 37 37 37 34 28 28 30 29 30 30 30 29 29 30 31 30 32 32 35 50 44 34 30 28 27 33 34 36 36 29 29 28 27 30 33 35 38 38 41 44 47 53
40 38 40 34 35 36 35 29 27 27 29 29 28 29 29 33 27 29 31 30 30 41 33 27 23 31 34 34 30 31 35 35 33 32 28 31 31 34 37 39 41 44 46 48 52
37 36 39 40 39 35 33 28 27 27 28 27 27 30 29 33 29 29 32 31 28 30 28 28 24 31 23 26 29 32 26 23 29 34 32 33 35 43 45 46 48 47 50 51 52
46 43 41 38 34 32 32 31 32 32 31 32 33 29 29 31 32 31 31 30 34 33 27 26 26 26 22 27 24 22 23 26 31 41 43 34 44 52 51 51 51 53 54 54 55
Lifted_Index
12 12 12 12 12 13 14 14 14 13 13 12 12 12 11 10 8 6 5 6 5 4 3 1 0 -0 0 -0 -1 -1 -1 -0 0 0 0 0 0 -0 -1 -2 -2 -1 -1 -1 -1
12 12 12 12 12 13 13 14 14 14 13 13 12 12 11 10 7 6 6 6 5 5 4 2 1 1 1 1 -1 -1 -1 -0 -0 -0 -0 -0 -0 -1 -1 -2 -2 -1 -1 -1 -1
13 12 12 12 12 12 13 13 14 14 14 13 12 11 11 10 7 6 5 5 5 5 5 3 2 2 2 1 -0 -1 -1 -1 -1 -1 -1 -1 -1 -1 -1 -1 -1 -1 -1 -1 -1
14 13 13 12 12 12 12 13 13 14 14 13 12 11 11 9 7 6 3 2 4 5 5 4 3 3 3 2 -0 -1 -1 -0 -1 -1 -2 -2 -2 -1 -1 -1 -1 -0 -0 -1 -1
13 13 13 13 12 12 12 12 13 13 13 13 12 11 10 9 8 6 3 2 4 5 5 5 4 4 4 3 1 -0 -0 -0 -1 -2 -2 -2 -2 -2 -2 -1 -1 -0 -0 -0 -1
12 12 13 13 13 12 12 12 12 13 13 13 11 11 10 9 8 7 5 5 6 6 5 5 5 5 4 3 3 2 1 -0 -1 -2 -2 -2 -2 -2 -2 -2 -1 -1 -0 -0 -0
11 11 12 12 13 13 12 12 12 13 13 12 11 10 9 9 9 8 7 7 7 6 6 5 5 5 4 4 4 3 1 -0 -1 -2 -2 -2 -2 -2 -2 -2 -2 -1 -0 -0 -0
11 11 11 11 12 12 12 12 11 12 12 11 10 10 9 9 8 7 7 7 7 7 6 5 5 5 4 4 4 3 2 1 0 -1 -1 -1 -1 -1 -1 -2 -2 -1 -1 -1 -1
12 11 11 11 11 12 12 12 11 11 11 11 10 9 8 8 8 7 6 7 7 7 6 6 5 5 4 4 3 3 3 2 2 1 -0 -1 -1 -1 -1 -2 -2 -2 -2 -1 -1
12 12 11 11 11 11 12 12 11 10 10 10 9 8 8 7 7 7 6 7 7 7 6 6 5 5 5 4 3 3 4 3 3 3 2 1 0 -0 -1 -2 -2 -2 -2 -2 -2
13 12 12 11 10 11 11 11 9 9 8 8 8 8 7 7 7 7 7 7 7 7 6 6 5 5 6 5 4 4 4 4 4 4 4 2 1 -0 -1 -2 -2 -2 -2 -2 -2
13 13 12 11 10 10 11 10 9 7 7 7 7 7 7 7 7 7 7 7 7 7 6 6 6 6 6 6 5 5 4 4 4 4 4 3 2 0 -1 -2 -2 -2 -2 -2 -2
13 12 12 11 10 10 10 10 9 7 6 6 7 7 7 7 7 7 7 7 7 7 7 6 6 7 6 6 5 5 4 4 4 4 4 3 2 1 0 -1 -2 -2 -2 -2 -2
12 12 12 11 10 9 9 9 9 7 5 5 6 7 7 7 7 7 7 7 7 7 7 6 6 6 6 5 5 4 4 4 4 4 4 3 2 2 2 1 -0 -1 -2 -2 -2
11 11 11 10 9 8 8 8 8 6 4 4 5 6 7 6 6 7 7 7 6 6 6 6 6 5 5 5 4 3 3 4 4 4 3 3 3 2 2 2 1 -0 -1 -2 -2
10 10 11 10 8 8 8 8 7 5 4 4 5 5 6 6 6 6 6 6 5 5 5 5 5 4 4 4 3 3 3 3 3 3 2 3 2 2 1 1 1 1 -1 -2 -2
9 10 10 9 8 8 8 7 5 4 4 4 4 4 5 5 5 6 6 6 5 5 4 4 3 3 3 3 3 3 2 2 2 1 2 2 2 1 1 1 1 1 0 -1 -2
8 9 10 9 8 8 7 6 5 4 4 4 4 4 4 4 4 5 5 5 5 5 4 3 3 3 2 2 2 2 2 1 1 1 1 2 2 1 1 1 1 1 1 -1 -2
7 7 9 9 8 8 7 5 5 5 5 4 4 4 4 4 4 4 4 4 4 4 4 3 3 2 2 2 2 2 2 1 1 1 1 1 1 1 1 1 1 1 1 -0 -1
5 6 7 8 8 8 7 5 5 5 4 4 4 4 4 4 3 3 3 3 3 3 3 3 2 2 2 2 2 1 1 1 1 1 1 1 1 1 1 1 1 1 1 0 -0
5 6 7 8 8 7 6 5 5 4 4 4 4 3 3 3 3 3 3 3 3 3 3 3 2 2 1 1 1 1 1 1 1 1 1 1 1 1 1 1 1 1 0 -0 -0
5 6 8 8 7 6 6 5 5 4 4 3 3 3 3 3 3 3 3 3 3 3 3 3 3 2 2 1 1 1 0 1 1 1 1 1 1 1 1 1 1 1 0 -1 -1
5 6 7 7 6 5 5 4 4 4 4 4 3 3 3 3 4 4 4 4 4 4 4 4 3 3 3 2 2 1 1 1 0 0 0 0 1 1 1 1 1 1 0 -1 -1
5 5 6 6 5 5 5 4 4 4 4 4 4 4 4 4 4 5 5 5 5 5 5 5 4 4 4 3 3 2 1 1 1 0 0 0 0 0 0 0 0 0 0 -1 -1
5 5 5 5 5 5 5 4 4 5 5 6 6 6 5 5 5 5 6 6 6 7 7 6 5 5 5 5 4 3 2 1 1 0 0 0 0 0 -0 -0 -0 -0 -0 -1 -1
6 6 5 5 5 4 5 5 5 6 6 6 7 7 7 7 6 6 7 7 7 7 8 7 6 5 5 5 5 4 3 2 1 1 1 1 1 -0 -1 -1 -1 -1 -1 -1 -1
8 8 7 6 5 4 5 5 6 6 6 7 7 7 7 7 7 7 8 8 8 8 8 7 6 5 5 5 5 4 4 3 2 2 1 1 0 -0 -1 -1 -1 -1 -1 -1 -1